Year,Month,Day,Hour,Minute,Value (Times are PST for temperature in C)
2011,07,24,00,00,15.80
2011,07,24,00,01,15.80
2011,07,24,00,02,15.80
2011,07,24,00,03,15.80
2011,07,24,00,04,15.80
2011,07,24,00,05,15.80
2011,07,24,00,06,15.70
2011,07,24,00,07,15.70
2011,07,24,00,08,15.70
2011,07,24,00,09,15.70
2011,07,24,00,10,15.70
2011,07,24,00,11,15.70
2011,07,24,00,12,15.60
2011,07,24,00,13,15.60
2011,07,24,00,14,15.60
2011,07,24,00,15,15.60
2011,07,24,00,16,15.60
2011,07,24,00,17,15.60
2011,07,24,00,18,15.60
2011,07,24,00,19,15.60
2011,07,24,00,20,15.60
2011,07,24,00,21,15.60
2011,07,24,00,22,15.60
2011,07,24,00,23,15.60
2011,07,24,00,24,15.60
2011,07,24,00,25,15.50
2011,07,24,00,26,15.50
2011,07,24,00,27,15.50
2011,07,24,00,28,15.50
2011,07,24,00,29,15.50
2011,07,24,00,30,15.50
2011,07,24,00,31,15.50
2011,07,24,00,32,15.40
2011,07,24,00,33,15.40
2011,07,24,00,34,15.40
2011,07,24,00,35,15.30
2011,07,24,00,36,15.30
2011,07,24,00,37,15.30
2011,07,24,00,38,15.30
2011,07,24,00,39,15.30
2011,07,24,00,40,15.30
2011,07,24,00,41,15.30
2011,07,24,00,42,15.20
2011,07,24,00,43,15.20
2011,07,24,00,44,15.20
2011,07,24,00,45,15.10
2011,07,24,00,46,15.10
2011,07,24,00,47,15.10
2011,07,24,00,48,15.10
2011,07,24,00,49,15.00
2011,07,24,00,50,15.00
2011,07,24,00,51,15.00
2011,07,24,00,52,15.00
2011,07,24,00,53,14.90
2011,07,24,00,54,14.90
2011,07,24,00,55,14.90
2011,07,24,00,56,14.90
2011,07,24,00,57,14.90
2011,07,24,00,58,14.90
2011,07,24,00,59,14.80
2011,07,24,01,00,14.80
2011,07,24,01,01,14.80
2011,07,24,01,02,14.80
2011,07,24,01,03,14.80
2011,07,24,01,04,14.80
2011,07,24,01,05,14.70
2011,07,24,01,06,14.70
2011,07,24,01,07,14.70
2011,07,24,01,08,14.60
2011,07,24,01,09,14.60
2011,07,24,01,10,14.60
2011,07,24,01,11,14.50
2011,07,24,01,12,14.50
2011,07,24,01,13,14.50
2011,07,24,01,14,14.40
2011,07,24,01,15,14.40
2011,07,24,01,16,14.40
2011,07,24,01,17,14.40
2011,07,24,01,18,14.30
2011,07,24,01,19,14.30
2011,07,24,01,20,14.30
2011,07,24,01,21,14.20
2011,07,24,01,22,14.20
2011,07,24,01,23,14.20
2011,07,24,01,24,14.20
2011,07,24,01,25,14.20
2011,07,24,01,26,14.20
2011,07,24,01,27,14.20
2011,07,24,01,28,14.10
2011,07,24,01,29,14.10
2011,07,24,01,30,14.00
2011,07,24,01,31,14.00
2011,07,24,01,32,14.00
2011,07,24,01,33,14.00
2011,07,24,01,34,14.00
2011,07,24,01,35,13.90
2011,07,24,01,36,13.90
2011,07,24,01,37,13.90
2011,07,24,01,38,13.90
2011,07,24,01,39,13.90
2011,07,24,01,40,13.90
2011,07,24,01,41,13.80
2011,07,24,01,42,13.80
2011,07,24,01,43,13.80
2011,07,24,01,44,13.80
2011,07,24,01,45,13.80
2011,07,24,01,46,13.70
2011,07,24,01,47,13.70
2011,07,24,01,48,13.70
2011,07,24,01,49,13.70
2011,07,24,01,50,13.70
2011,07,24,01,51,13.70
2011,07,24,01,52,13.70
2011,07,24,01,53,13.70
2011,07,24,01,54,13.70
2011,07,24,01,55,13.70
2011,07,24,01,56,13.70
2011,07,24,01,57,13.70
2011,07,24,01,58,13.70
2011,07,24,01,59,13.70
2011,07,24,02,00,13.70
2011,07,24,02,01,13.70
2011,07,24,02,02,13.70
2011,07,24,02,03,13.70
2011,07,24,02,04,13.70
2011,07,24,02,05,13.70
2011,07,24,02,06,13.60
2011,07,24,02,07,13.60
2011,07,24,02,08,13.60
2011,07,24,02,09,13.60
2011,07,24,02,10,13.60
2011,07,24,02,11,13.60
2011,07,24,02,12,13.50
2011,07,24,02,13,13.50
2011,07,24,02,14,13.50
2011,07,24,02,15,13.50
2011,07,24,02,16,13.50
2011,07,24,02,17,13.50
2011,07,24,02,18,13.50
2011,07,24,02,19,13.40
2011,07,24,02,20,13.40
2011,07,24,02,21,13.40
2011,07,24,02,22,13.40
2011,07,24,02,23,13.40
2011,07,24,02,24,13.30
2011,07,24,02,25,13.30
2011,07,24,02,26,13.30
2011,07,24,02,27,13.30
2011,07,24,02,28,13.30
2011,07,24,02,29,13.30
2011,07,24,02,30,13.30
2011,07,24,02,31,13.30
2011,07,24,02,32,13.30
2011,07,24,02,33,13.30
2011,07,24,02,34,13.20
2011,07,24,02,35,13.20
2011,07,24,02,36,13.20
2011,07,24,02,37,13.20
2011,07,24,02,38,13.20
2011,07,24,02,39,13.20
2011,07,24,02,40,13.20
2011,07,24,02,41,13.20
2011,07,24,02,42,13.20
2011,07,24,02,43,13.20
2011,07,24,02,44,13.20
2011,07,24,02,45,13.20
2011,07,24,02,46,13.20
2011,07,24,02,47,13.20
2011,07,24,02,48,13.20
2011,07,24,02,49,13.20
2011,07,24,02,50,13.10
2011,07,24,02,51,13.10
2011,07,24,02,52,13.10
2011,07,24,02,53,13.10
2011,07,24,02,54,13.10
2011,07,24,02,55,13.00
2011,07,24,02,56,13.00
2011,07,24,02,57,13.00
2011,07,24,02,58,13.00
2011,07,24,02,59,12.90
2011,07,24,03,00,12.90
2011,07,24,03,01,12.90
2011,07,24,03,02,12.90
2011,07,24,03,03,12.90
2011,07,24,03,04,12.80
2011,07,24,03,05,12.80
2011,07,24,03,06,12.80
2011,07,24,03,07,12.80
2011,07,24,03,08,12.80
2011,07,24,03,09,12.80
2011,07,24,03,10,12.80
2011,07,24,03,11,12.80
2011,07,24,03,12,12.80
2011,07,24,03,13,12.80
2011,07,24,03,14,12.80
2011,07,24,03,15,12.80
2011,07,24,03,16,12.80
2011,07,24,03,17,12.80
2011,07,24,03,18,12.80
2011,07,24,03,19,12.80
2011,07,24,03,20,12.80
2011,07,24,03,21,12.80
2011,07,24,03,22,12.80
2011,07,24,03,23,12.80
2011,07,24,03,24,12.80
2011,07,24,03,25,12.80
2011,07,24,03,26,12.80
2011,07,24,03,27,12.80
2011,07,24,03,28,12.80
2011,07,24,03,29,12.80
2011,07,24,03,30,12.80
2011,07,24,03,31,12.80
2011,07,24,03,32,12.80
2011,07,24,03,33,12.80
2011,07,24,03,34,12.80
2011,07,24,03,35,12.80
2011,07,24,03,36,12.80
2011,07,24,03,37,12.80
2011,07,24,03,38,12.80
2011,07,24,03,39,12.80
2011,07,24,03,40,12.80
2011,07,24,03,41,12.80
2011,07,24,03,42,12.80
2011,07,24,03,43,12.80
2011,07,24,03,44,12.80
2011,07,24,03,45,12.80
2011,07,24,03,46,12.80
2011,07,24,03,47,12.80
2011,07,24,03,48,12.80
2011,07,24,03,49,12.80
2011,07,24,03,50,12.80
2011,07,24,03,51,12.80
2011,07,24,03,52,12.80
2011,07,24,03,53,12.80
2011,07,24,03,54,12.80
2011,07,24,03,55,12.80
2011,07,24,03,56,12.80
2011,07,24,03,57,12.80
2011,07,24,03,58,12.70
2011,07,24,03,59,12.70
2011,07,24,04,00,12.70
2011,07,24,04,01,12.70
2011,07,24,04,02,12.70
2011,07,24,04,03,12.70
2011,07,24,04,04,12.70
2011,07,24,04,05,12.70
2011,07,24,04,06,12.70
2011,07,24,04,07,12.70
2011,07,24,04,08,12.60
2011,07,24,04,09,12.60
2011,07,24,04,10,12.60
2011,07,24,04,11,12.60
2011,07,24,04,12,12.60
2011,07,24,04,13,12.60
2011,07,24,04,14,12.60
2011,07,24,04,15,12.60
2011,07,24,04,16,12.50
2011,07,24,04,17,12.50
2011,07,24,04,18,12.50
2011,07,24,04,19,12.50
2011,07,24,04,20,12.50
2011,07,24,04,21,12.50
2011,07,24,04,22,12.50
2011,07,24,04,23,12.50
2011,07,24,04,24,12.50
2011,07,24,04,25,12.40
2011,07,24,04,26,12.40
2011,07,24,04,27,12.40
2011,07,24,04,28,12.40
2011,07,24,04,29,12.40
2011,07,24,04,30,12.40
2011,07,24,04,31,12.40
2011,07,24,04,32,12.40
2011,07,24,04,33,12.40
2011,07,24,04,34,12.40
2011,07,24,04,35,12.40
2011,07,24,04,36,12.40
2011,07,24,04,37,12.40
2011,07,24,04,38,12.40
2011,07,24,04,39,12.30
2011,07,24,04,40,12.30
2011,07,24,04,41,12.30
2011,07,24,04,42,12.30
2011,07,24,04,43,12.30
2011,07,24,04,44,12.30
2011,07,24,04,45,12.30
2011,07,24,04,46,12.30
2011,07,24,04,47,12.30
2011,07,24,04,48,12.30
2011,07,24,04,49,12.30
2011,07,24,04,50,12.30
2011,07,24,04,51,12.30
2011,07,24,04,52,12.30
2011,07,24,04,53,12.30
2011,07,24,04,54,12.30
2011,07,24,04,55,12.30
2011,07,24,04,56,12.30
2011,07,24,04,57,12.30
2011,07,24,04,58,12.40
2011,07,24,04,59,12.40
2011,07,24,05,00,12.40
2011,07,24,05,01,12.40
2011,07,24,05,02,12.40
2011,07,24,05,03,12.50
2011,07,24,05,04,12.50
2011,07,24,05,05,12.50
2011,07,24,05,06,12.50
2011,07,24,05,07,12.50
2011,07,24,05,08,12.50
2011,07,24,05,09,12.50
2011,07,24,05,10,12.60
2011,07,24,05,11,12.60
2011,07,24,05,12,12.60
2011,07,24,05,13,12.60
2011,07,24,05,14,12.60
2011,07,24,05,15,12.60
2011,07,24,05,16,12.60
2011,07,24,05,17,12.60
2011,07,24,05,18,12.60
2011,07,24,05,19,12.60
2011,07,24,05,20,12.60
2011,07,24,05,21,12.50
2011,07,24,05,22,12.50
2011,07,24,05,23,12.30
2011,07,24,05,24,12.30
2011,07,24,05,25,12.30
2011,07,24,05,26,12.20
2011,07,24,05,27,12.20
2011,07,24,05,28,12.10
2011,07,24,05,29,12.10
2011,07,24,05,30,12.10
2011,07,24,05,31,12.10
2011,07,24,05,32,12.00
2011,07,24,05,33,12.00
2011,07,24,05,34,12.00
2011,07,24,05,35,12.00
2011,07,24,05,36,12.00
2011,07,24,05,37,12.00
2011,07,24,05,38,12.00
2011,07,24,05,39,12.10
2011,07,24,05,40,12.10
2011,07,24,05,41,12.30
2011,07,24,05,42,12.30
2011,07,24,05,43,12.40
2011,07,24,05,44,12.50
2011,07,24,05,45,12.60
2011,07,24,05,46,12.60
2011,07,24,05,47,12.70
2011,07,24,05,48,12.80
2011,07,24,05,49,12.90
2011,07,24,05,50,13.00
2011,07,24,05,51,13.00
2011,07,24,05,52,13.10
2011,07,24,05,53,13.20
2011,07,24,05,54,13.30
2011,07,24,05,55,13.40
2011,07,24,05,56,13.50
2011,07,24,05,57,13.60
2011,07,24,05,58,13.70
2011,07,24,05,59,13.80
2011,07,24,06,00,13.90
2011,07,24,06,01,14.00
2011,07,24,06,02,14.10
2011,07,24,06,03,14.10
2011,07,24,06,04,14.20
2011,07,24,06,05,14.20
2011,07,24,06,06,14.20
2011,07,24,06,07,14.30
2011,07,24,06,08,14.40
2011,07,24,06,09,14.40
2011,07,24,06,10,14.50
2011,07,24,06,11,14.60
2011,07,24,06,12,14.70
2011,07,24,06,13,14.70
2011,07,24,06,14,14.80
2011,07,24,06,15,14.80
2011,07,24,06,16,14.90
2011,07,24,06,17,14.90
2011,07,24,06,18,14.90
2011,07,24,06,19,15.00
2011,07,24,06,20,15.00
2011,07,24,06,21,15.00
2011,07,24,06,22,15.00
2011,07,24,06,23,15.10
2011,07,24,06,24,15.10
2011,07,24,06,25,15.10
2011,07,24,06,26,15.20
2011,07,24,06,27,15.20
2011,07,24,06,28,15.20
2011,07,24,06,29,15.30
2011,07,24,06,30,15.30
2011,07,24,06,31,15.30
2011,07,24,06,32,15.30
2011,07,24,06,33,15.40
2011,07,24,06,34,15.40
2011,07,24,06,35,15.40
2011,07,24,06,36,15.50
2011,07,24,06,37,15.50
2011,07,24,06,38,15.60
2011,07,24,06,39,15.60
2011,07,24,06,40,15.70
2011,07,24,06,41,15.70
2011,07,24,06,42,15.70
2011,07,24,06,43,15.40
2011,07,24,06,44,15.20
2011,07,24,06,45,14.90
2011,07,24,06,46,14.60
2011,07,24,06,47,14.40
2011,07,24,06,48,14.20
2011,07,24,06,49,14.00
2011,07,24,06,50,13.90
2011,07,24,06,51,13.80
2011,07,24,06,52,13.70
2011,07,24,06,53,13.70
2011,07,24,06,54,13.70
2011,07,24,06,55,13.60
2011,07,24,06,56,13.60
2011,07,24,06,57,13.60
2011,07,24,06,58,13.60
2011,07,24,06,59,13.60
2011,07,24,07,00,13.60
2011,07,24,07,01,13.70
2011,07,24,07,02,13.70
2011,07,24,07,03,13.70
2011,07,24,07,04,13.80
2011,07,24,07,05,13.90
2011,07,24,07,06,14.00
2011,07,24,07,07,14.00
2011,07,24,07,08,14.10
2011,07,24,07,09,14.20
2011,07,24,07,10,14.30
2011,07,24,07,11,14.50
2011,07,24,07,12,14.60
2011,07,24,07,13,14.70
2011,07,24,07,14,14.70
2011,07,24,07,15,14.80
2011,07,24,07,16,14.90
2011,07,24,07,17,15.00
2011,07,24,07,18,15.10
2011,07,24,07,19,15.20
2011,07,24,07,20,15.30
2011,07,24,07,21,15.40
2011,07,24,07,22,15.50
2011,07,24,07,23,15.50
2011,07,24,07,24,15.60
2011,07,24,07,25,15.60
2011,07,24,07,26,15.70
2011,07,24,07,27,15.80
2011,07,24,07,28,15.80
2011,07,24,07,29,15.80
2011,07,24,07,30,15.80
2011,07,24,07,31,15.90
2011,07,24,07,32,15.90
2011,07,24,07,33,15.80
2011,07,24,07,34,15.80
2011,07,24,07,35,15.80
2011,07,24,07,36,15.80
2011,07,24,07,37,15.80
2011,07,24,07,38,15.80
2011,07,24,07,39,15.80
2011,07,24,07,40,15.80
2011,07,24,07,41,15.80
2011,07,24,07,42,15.80
2011,07,24,07,43,15.70
2011,07,24,07,44,15.70
2011,07,24,07,45,15.60
2011,07,24,07,46,15.60
2011,07,24,07,47,15.60
2011,07,24,07,48,15.60
2011,07,24,07,49,15.60
2011,07,24,07,50,15.60
2011,07,24,07,51,15.60
2011,07,24,07,52,15.70
2011,07,24,07,53,15.70
2011,07,24,07,54,15.60
2011,07,24,07,55,15.60
2011,07,24,07,56,15.60
2011,07,24,07,57,15.60
2011,07,24,07,58,15.60
2011,07,24,07,59,15.50
2011,07,24,08,00,15.50
2011,07,24,08,01,15.50
2011,07,24,08,02,15.50
2011,07,24,08,03,15.50
2011,07,24,08,04,15.50
2011,07,24,08,05,15.50
2011,07,24,08,06,15.60
2011,07,24,08,07,15.60
2011,07,24,08,08,15.60
2011,07,24,08,09,15.70
2011,07,24,08,10,15.80
2011,07,24,08,11,15.80
2011,07,24,08,12,15.80
2011,07,24,08,13,15.90
2011,07,24,08,14,16.00
2011,07,24,08,15,16.10
2011,07,24,08,16,16.10
2011,07,24,08,17,16.20
2011,07,24,08,18,16.30
2011,07,24,08,19,16.30
2011,07,24,08,20,16.40
2011,07,24,08,21,16.50
2011,07,24,08,22,16.60
2011,07,24,08,23,16.70
2011,07,24,08,24,16.70
2011,07,24,08,25,16.80
2011,07,24,08,26,16.90
2011,07,24,08,27,17.00
2011,07,24,08,28,17.10
2011,07,24,08,29,17.20
2011,07,24,08,30,17.30
2011,07,24,08,31,17.40
2011,07,24,08,32,17.50
2011,07,24,08,33,17.50
2011,07,24,08,34,17.70
2011,07,24,08,35,17.70
2011,07,24,08,36,17.80
2011,07,24,08,37,17.80
2011,07,24,08,38,17.80
2011,07,24,08,39,17.90
2011,07,24,08,40,17.90
2011,07,24,08,41,17.90
2011,07,24,08,42,18.00
2011,07,24,08,43,18.10
2011,07,24,08,44,18.20
2011,07,24,08,45,18.20
2011,07,24,08,46,18.30
2011,07,24,08,47,18.40
2011,07,24,08,48,18.40
2011,07,24,08,49,18.50
2011,07,24,08,50,18.50
2011,07,24,08,51,18.50
2011,07,24,08,52,18.50
2011,07,24,08,53,18.50
2011,07,24,08,54,18.50
2011,07,24,08,55,18.50
2011,07,24,08,56,18.60
2011,07,24,08,57,18.60
2011,07,24,08,58,18.60
2011,07,24,08,59,18.70
2011,07,24,09,00,18.70
2011,07,24,09,01,18.80
2011,07,24,09,02,18.80
2011,07,24,09,03,18.80
2011,07,24,09,04,18.80
2011,07,24,09,05,18.80
2011,07,24,09,06,18.80
2011,07,24,09,07,18.80
2011,07,24,09,08,18.80
2011,07,24,09,09,18.70
2011,07,24,09,10,18.70
2011,07,24,09,11,18.70
2011,07,24,09,12,18.70
2011,07,24,09,13,18.80
2011,07,24,09,14,18.80
2011,07,24,09,15,18.90
2011,07,24,09,16,18.90
2011,07,24,09,17,19.00
2011,07,24,09,18,19.10
2011,07,24,09,19,19.10
2011,07,24,09,20,19.10
2011,07,24,09,21,19.10
2011,07,24,09,22,19.10
2011,07,24,09,23,19.10
2011,07,24,09,24,19.20
2011,07,24,09,25,19.20
2011,07,24,09,26,19.30
2011,07,24,09,27,19.40
2011,07,24,09,28,19.40
2011,07,24,09,29,19.40
2011,07,24,09,30,19.50
2011,07,24,09,31,19.50
2011,07,24,09,32,19.50
2011,07,24,09,33,19.50
2011,07,24,09,34,19.50
2011,07,24,09,35,19.60
2011,07,24,09,36,19.60
2011,07,24,09,37,19.60
2011,07,24,09,38,19.70
2011,07,24,09,39,19.70
2011,07,24,09,40,19.70
2011,07,24,09,41,19.60
2011,07,24,09,42,19.60
2011,07,24,09,43,19.60
2011,07,24,09,44,19.60
2011,07,24,09,45,19.60
2011,07,24,09,46,19.70
2011,07,24,09,47,19.70
2011,07,24,09,48,19.70
2011,07,24,09,49,19.80
2011,07,24,09,50,19.80
2011,07,24,09,51,19.80
2011,07,24,09,52,19.90
2011,07,24,09,53,19.90
2011,07,24,09,54,19.90
2011,07,24,09,55,19.90
2011,07,24,09,56,20.00
2011,07,24,09,57,20.10
2011,07,24,09,58,20.10
2011,07,24,09,59,20.10
2011,07,24,10,00,20.20
2011,07,24,10,01,20.20
2011,07,24,10,02,20.20
2011,07,24,10,03,20.20
2011,07,24,10,04,20.20
2011,07,24,10,05,20.20
2011,07,24,10,06,20.20
2011,07,24,10,07,20.20
2011,07,24,10,08,20.20
2011,07,24,10,09,20.20
2011,07,24,10,10,20.20
2011,07,24,10,11,20.30
2011,07,24,10,12,20.30
2011,07,24,10,13,20.40
2011,07,24,10,14,20.40
2011,07,24,10,15,20.40
2011,07,24,10,16,20.40
2011,07,24,10,17,20.30
2011,07,24,10,18,20.20
2011,07,24,10,19,20.30
2011,07,24,10,20,20.30
2011,07,24,10,21,20.20
2011,07,24,10,22,20.30
2011,07,24,10,23,20.30
2011,07,24,10,24,20.30
2011,07,24,10,25,20.20
2011,07,24,10,26,20.20
2011,07,24,10,27,20.20
2011,07,24,10,28,20.20
2011,07,24,10,29,20.20
2011,07,24,10,30,20.20
2011,07,24,10,31,20.20
2011,07,24,10,32,20.20
2011,07,24,10,33,20.20
2011,07,24,10,34,20.20
2011,07,24,10,35,20.20
2011,07,24,10,36,20.20
2011,07,24,10,37,20.10
2011,07,24,10,38,19.90
2011,07,24,10,39,19.90
2011,07,24,10,40,19.80
2011,07,24,10,41,19.80
2011,07,24,10,42,19.70
2011,07,24,10,43,19.80
2011,07,24,10,44,19.80
2011,07,24,10,45,19.70
2011,07,24,10,46,19.70
2011,07,24,10,47,19.60
2011,07,24,10,48,19.60
2011,07,24,10,49,19.60
2011,07,24,10,50,19.60
2011,07,24,10,51,19.60
2011,07,24,10,52,19.50
2011,07,24,10,53,19.50
2011,07,24,10,54,19.50
2011,07,24,10,55,19.40
2011,07,24,10,56,19.40
2011,07,24,10,57,19.30
2011,07,24,10,58,19.30
2011,07,24,10,59,19.20
2011,07,24,11,00,19.20
2011,07,24,11,01,19.20
2011,07,24,11,02,19.20
2011,07,24,11,03,19.10
2011,07,24,11,04,19.10
2011,07,24,11,05,19.10
2011,07,24,11,06,19.10
2011,07,24,11,07,19.10
2011,07,24,11,08,19.10
2011,07,24,11,09,19.10
2011,07,24,11,10,19.10
2011,07,24,11,11,19.10
2011,07,24,11,12,19.10
2011,07,24,11,13,19.10
2011,07,24,11,14,19.20
2011,07,24,11,15,19.30
2011,07,24,11,16,19.40
2011,07,24,11,17,19.50
2011,07,24,11,18,19.60
2011,07,24,11,19,19.60
2011,07,24,11,20,19.70
2011,07,24,11,21,19.80
2011,07,24,11,22,19.90
2011,07,24,11,23,19.90
2011,07,24,11,24,19.90
2011,07,24,11,25,19.90
2011,07,24,11,26,20.00
2011,07,24,11,27,20.00
2011,07,24,11,28,19.90
2011,07,24,11,29,19.90
2011,07,24,11,30,19.90
2011,07,24,11,31,19.80
2011,07,24,11,32,19.80
2011,07,24,11,33,19.80
2011,07,24,11,34,19.80
2011,07,24,11,35,19.80
2011,07,24,11,36,19.90
2011,07,24,11,37,19.90
2011,07,24,11,38,19.90
2011,07,24,11,39,19.90
2011,07,24,11,40,19.90
2011,07,24,11,41,19.80
2011,07,24,11,42,19.80
2011,07,24,11,43,19.80
2011,07,24,11,44,19.80
2011,07,24,11,45,19.90
2011,07,24,11,46,19.90
2011,07,24,11,47,19.90
2011,07,24,11,48,19.90
2011,07,24,11,49,19.90
2011,07,24,11,50,19.90
2011,07,24,11,51,19.90
2011,07,24,11,52,19.90
2011,07,24,11,53,19.90
2011,07,24,11,54,19.90
2011,07,24,11,55,19.90
2011,07,24,11,56,19.90
2011,07,24,11,57,20.10
2011,07,24,11,58,20.20
2011,07,24,11,59,20.30
2011,07,24,12,00,20.40
2011,07,24,12,01,20.40
2011,07,24,12,02,20.40
2011,07,24,12,03,20.50
2011,07,24,12,04,20.60
2011,07,24,12,05,20.60
2011,07,24,12,06,20.60
2011,07,24,12,07,20.60
2011,07,24,12,08,20.70
2011,07,24,12,09,20.80
2011,07,24,12,10,21.00
2011,07,24,12,11,21.00
2011,07,24,12,12,21.00
2011,07,24,12,13,21.00
2011,07,24,12,14,21.00
2011,07,24,12,15,20.90
2011,07,24,12,16,20.90
2011,07,24,12,17,20.90
2011,07,24,12,18,20.90
2011,07,24,12,19,20.90
2011,07,24,12,20,20.90
2011,07,24,12,21,20.90
2011,07,24,12,22,21.00
2011,07,24,12,23,21.00
2011,07,24,12,24,21.10
2011,07,24,12,25,21.10
2011,07,24,12,26,21.10
2011,07,24,12,27,21.20
2011,07,24,12,28,21.30
2011,07,24,12,29,21.50
2011,07,24,12,30,21.60
2011,07,24,12,31,21.60
2011,07,24,12,32,21.60
2011,07,24,12,33,21.60
2011,07,24,12,34,21.60
2011,07,24,12,35,21.50
2011,07,24,12,36,21.40
2011,07,24,12,37,21.30
2011,07,24,12,38,21.30
2011,07,24,12,39,21.30
2011,07,24,12,40,21.40
2011,07,24,12,41,21.40
2011,07,24,12,42,21.40
2011,07,24,12,43,21.60
2011,07,24,12,44,21.60
2011,07,24,12,45,21.60
2011,07,24,12,46,21.60
2011,07,24,12,47,21.60
2011,07,24,12,48,21.60
2011,07,24,12,49,21.60
2011,07,24,12,50,21.60
2011,07,24,12,51,21.60
2011,07,24,12,52,21.60
2011,07,24,12,53,21.60
2011,07,24,12,54,21.60
2011,07,24,12,55,21.70
2011,07,24,12,56,21.80
2011,07,24,12,57,21.90
2011,07,24,12,58,22.00
2011,07,24,12,59,22.10
2011,07,24,13,00,22.20
2011,07,24,13,01,22.20
2011,07,24,13,02,22.30
2011,07,24,13,03,22.30
2011,07,24,13,04,22.20
2011,07,24,13,05,22.20
2011,07,24,13,06,22.10
2011,07,24,13,07,22.10
2011,07,24,13,08,22.10
2011,07,24,13,09,22.20
2011,07,24,13,10,22.30
2011,07,24,13,11,22.40
2011,07,24,13,12,22.50
2011,07,24,13,13,22.60
2011,07,24,13,14,22.60
2011,07,24,13,15,22.70
2011,07,24,13,16,22.80
2011,07,24,13,17,22.90
2011,07,24,13,18,22.90
2011,07,24,13,19,22.90
2011,07,24,13,20,22.90
2011,07,24,13,21,22.90
2011,07,24,13,22,22.90
2011,07,24,13,23,22.90
2011,07,24,13,24,22.90
2011,07,24,13,25,22.90
2011,07,24,13,26,22.90
2011,07,24,13,27,22.90
2011,07,24,13,28,22.90
2011,07,24,13,29,23.00
2011,07,24,13,30,23.10
2011,07,24,13,31,23.20
2011,07,24,13,32,23.20
2011,07,24,13,33,23.20
2011,07,24,13,34,23.20
2011,07,24,13,35,23.20
2011,07,24,13,36,23.20
2011,07,24,13,37,23.20
2011,07,24,13,38,23.20
2011,07,24,13,39,23.20
2011,07,24,13,40,23.20
2011,07,24,13,41,23.20
2011,07,24,13,42,23.10
2011,07,24,13,43,23.00
2011,07,24,13,44,22.90
2011,07,24,13,45,22.90
2011,07,24,13,46,22.90
2011,07,24,13,47,22.80
2011,07,24,13,48,22.80
2011,07,24,13,49,22.70
2011,07,24,13,50,22.60
2011,07,24,13,51,22.60
2011,07,24,13,52,22.70
2011,07,24,13,53,22.70
2011,07,24,13,54,22.70
2011,07,24,13,55,22.80
2011,07,24,13,56,22.80
2011,07,24,13,57,22.90
2011,07,24,13,58,22.90
2011,07,24,13,59,23.00
2011,07,24,14,00,23.10
2011,07,24,14,01,23.10
2011,07,24,14,02,23.20
2011,07,24,14,03,23.20
2011,07,24,14,04,23.10
2011,07,24,14,05,23.00
2011,07,24,14,06,22.90
2011,07,24,14,07,22.90
2011,07,24,14,08,22.90
2011,07,24,14,09,22.90
2011,07,24,14,10,22.90
2011,07,24,14,11,22.90
2011,07,24,14,12,22.90
2011,07,24,14,13,22.80
2011,07,24,14,14,22.80
2011,07,24,14,15,22.80
2011,07,24,14,16,22.80
2011,07,24,14,17,22.80
2011,07,24,14,18,22.90
2011,07,24,14,19,22.90
2011,07,24,14,20,22.90
2011,07,24,14,21,22.90
2011,07,24,14,22,22.90
2011,07,24,14,23,22.90
2011,07,24,14,24,22.90
2011,07,24,14,25,23.00
2011,07,24,14,26,23.10
2011,07,24,14,27,23.10
2011,07,24,14,28,23.10
2011,07,24,14,29,23.00
2011,07,24,14,30,22.90
2011,07,24,14,31,22.90
2011,07,24,14,32,22.80
2011,07,24,14,33,22.80
2011,07,24,14,34,22.90
2011,07,24,14,35,22.90
2011,07,24,14,36,23.10
2011,07,24,14,37,23.20
2011,07,24,14,38,23.30
2011,07,24,14,39,23.40
2011,07,24,14,40,23.50
2011,07,24,14,41,23.60
2011,07,24,14,42,23.70
2011,07,24,14,43,23.70
2011,07,24,14,44,23.70
2011,07,24,14,45,23.80
2011,07,24,14,46,23.80
2011,07,24,14,47,23.80
2011,07,24,14,48,23.70
2011,07,24,14,49,23.60
2011,07,24,14,50,23.40
2011,07,24,14,51,23.40
2011,07,24,14,52,23.30
2011,07,24,14,53,23.30
2011,07,24,14,54,23.30
2011,07,24,14,55,23.20
2011,07,24,14,56,23.20
2011,07,24,14,57,23.30
2011,07,24,14,58,23.30
2011,07,24,14,59,23.30
2011,07,24,15,00,23.50
2011,07,24,15,01,23.60
2011,07,24,15,02,23.70
2011,07,24,15,03,23.80
2011,07,24,15,04,23.90
2011,07,24,15,05,24.00
2011,07,24,15,06,24.10
2011,07,24,15,07,24.10
2011,07,24,15,08,24.10
2011,07,24,15,09,24.10
2011,07,24,15,10,24.10
2011,07,24,15,11,24.10
2011,07,24,15,12,24.10
2011,07,24,15,13,24.10
2011,07,24,15,14,24.10
2011,07,24,15,15,24.00
2011,07,24,15,16,23.90
2011,07,24,15,17,23.80
2011,07,24,15,18,23.80
2011,07,24,15,19,23.80
2011,07,24,15,20,23.80
2011,07,24,15,21,23.90
2011,07,24,15,22,24.00
2011,07,24,15,23,24.10
2011,07,24,15,24,24.10
2011,07,24,15,25,24.10
2011,07,24,15,26,24.10
2011,07,24,15,27,24.10
2011,07,24,15,28,24.10
2011,07,24,15,29,24.20
2011,07,24,15,30,24.20
2011,07,24,15,31,24.20
2011,07,24,15,32,24.30
2011,07,24,15,33,24.30
2011,07,24,15,34,24.40
2011,07,24,15,35,24.50
2011,07,24,15,36,24.60
2011,07,24,15,37,24.70
2011,07,24,15,38,24.80
2011,07,24,15,39,24.80
2011,07,24,15,40,24.90
2011,07,24,15,41,24.90
2011,07,24,15,42,25.00
2011,07,24,15,43,24.90
2011,07,24,15,44,24.90
2011,07,24,15,45,24.90
2011,07,24,15,46,24.90
2011,07,24,15,47,24.90
2011,07,24,15,48,24.90
2011,07,24,15,49,24.90
2011,07,24,15,50,24.90
2011,07,24,15,51,24.90
2011,07,24,15,52,24.90
2011,07,24,15,53,25.00
2011,07,24,15,54,25.10
2011,07,24,15,55,25.20
2011,07,24,15,56,25.40
2011,07,24,15,57,25.50
2011,07,24,15,58,25.70
2011,07,24,15,59,25.80
2011,07,24,16,00,25.90
2011,07,24,16,01,25.90
2011,07,24,16,02,26.00
2011,07,24,16,03,26.10
2011,07,24,16,04,26.10
2011,07,24,16,05,26.10
2011,07,24,16,06,26.10
2011,07,24,16,07,26.10
2011,07,24,16,08,26.00
2011,07,24,16,09,26.00
2011,07,24,16,10,25.90
2011,07,24,16,11,25.80
2011,07,24,16,12,25.70
2011,07,24,16,13,25.70
2011,07,24,16,14,25.80
2011,07,24,16,15,25.90
2011,07,24,16,16,26.00
2011,07,24,16,17,26.20
2011,07,24,16,18,26.30
2011,07,24,16,19,26.40
2011,07,24,16,20,26.40
2011,07,24,16,21,26.50
2011,07,24,16,22,26.60
2011,07,24,16,23,26.60
2011,07,24,16,24,26.60
2011,07,24,16,25,26.60
2011,07,24,16,26,26.70
2011,07,24,16,27,26.70
2011,07,24,16,28,26.80
2011,07,24,16,29,26.80
2011,07,24,16,30,26.80
2011,07,24,16,31,26.90
2011,07,24,16,32,27.10
2011,07,24,16,33,27.20
2011,07,24,16,34,27.30
2011,07,24,16,35,27.30
2011,07,24,16,36,27.30
2011,07,24,16,37,27.30
2011,07,24,16,38,27.40
2011,07,24,16,39,27.40
2011,07,24,16,40,27.60
2011,07,24,16,41,27.60
2011,07,24,16,42,27.60
2011,07,24,16,43,27.70
2011,07,24,16,44,27.70
2011,07,24,16,45,27.60
2011,07,24,16,46,27.50
2011,07,24,16,47,27.30
2011,07,24,16,48,27.30
2011,07,24,16,49,27.20
2011,07,24,16,50,27.10
2011,07,24,16,51,27.10
2011,07,24,16,52,27.10
2011,07,24,16,53,27.10
2011,07,24,16,54,27.10
2011,07,24,16,55,27.10
2011,07,24,16,56,27.10
2011,07,24,16,57,27.10
2011,07,24,16,58,27.10
2011,07,24,16,59,27.10
2011,07,24,17,00,27.10
2011,07,24,17,01,27.10
2011,07,24,17,02,27.10
2011,07,24,17,03,27.10
2011,07,24,17,04,27.10
2011,07,24,17,05,27.10
2011,07,24,17,06,27.10
2011,07,24,17,07,27.10
2011,07,24,17,08,27.00
2011,07,24,17,09,26.90
2011,07,24,17,10,26.80
2011,07,24,17,11,26.70
2011,07,24,17,12,26.60
2011,07,24,17,13,26.60
2011,07,24,17,14,26.60
2011,07,24,17,15,26.60
2011,07,24,17,16,26.60
2011,07,24,17,17,26.60
2011,07,24,17,18,26.60
2011,07,24,17,19,26.60